AUA125 LOWW-LOWI

Flight info

Callsign AUA125
Flight time 0h 45m
Altitude 30000
Route SOVIL DCT SITNI DCT BAGSI DCT NANIT NANIT2A
Aircraft A320/M-SDE3FGHIRWY/LB1

Departure

Time 2026-05-04 08:00
Airport Vienna International Airport (LOWW)

Arrival

Time 2026-05-04 08:46
Airport Innsbruck Airport (LOWI)
Time Latitude Longitude Altitude Speed Heading
2026-05-04 07:29 48.11953 16.55586 621 ft 0 kts 64°
2026-05-04 07:34 48.11952 16.55586 621 ft 0 kts 64°
2026-05-04 07:44 48.11946 16.55565 627 ft 2 kts 64°
2026-05-04 07:44 48.11938 16.55543 624 ft 2 kts 64°
2026-05-04 07:44 48.11931 16.55521 617 ft 2 kts 64°
2026-05-04 07:45 48.11924 16.55499 621 ft 2 kts 64°
2026-05-04 07:45 48.11917 16.55476 625 ft 2 kts 64°
2026-05-04 07:45 48.11910 16.55454 621 ft 2 kts 72°
2026-05-04 07:45 48.11905 16.55430 623 ft 2 kts 82°
2026-05-04 07:46 48.11904 16.55405 621 ft 2 kts 94°
2026-05-04 07:46 48.11905 16.55389 621 ft 2 kts 103°
2026-05-04 07:46 48.11907 16.55376 620 ft 1 kts 112°
2026-05-04 07:46 48.11907 16.55375 620 ft 0 kts 114°
2026-05-04 07:49 48.11871 16.55525 620 ft 12 kts 113°
2026-05-04 07:49 48.11828 16.55656 619 ft 15 kts 116°
2026-05-04 07:49 48.11779 16.55806 613 ft 17 kts 116°
2026-05-04 07:50 48.11727 16.55965 615 ft 18 kts 116°
2026-05-04 07:50 48.11675 16.56127 613 ft 17 kts 116°
2026-05-04 07:50 48.11631 16.56261 611 ft 12 kts 116°
2026-05-04 07:50 48.11592 16.56377 614 ft 13 kts 115°
2026-05-04 07:51 48.11551 16.56507 617 ft 14 kts 116°
2026-05-04 07:51 48.11505 16.56646 616 ft 15 kts 116°
2026-05-04 07:51 48.11457 16.56794 619 ft 16 kts 115°
2026-05-04 07:51 48.11406 16.56951 619 ft 17 kts 117°
2026-05-04 07:52 48.11354 16.57111 614 ft 17 kts 116°
2026-05-04 07:52 48.11306 16.57257 617 ft 14 kts 113°
2026-05-04 07:52 48.11344 16.57355 621 ft 9 kts 24°
2026-05-04 07:52 48.11400 16.57394 621 ft 8 kts 26°
2026-05-04 07:53 48.11440 16.57423 610 ft 6 kts 26°
2026-05-04 07:54 48.11925 16.57421 618 ft 11 kts 344°
2026-05-04 07:55 48.11996 16.57419 615 ft 10 kts 34°
2026-05-04 07:55 48.12009 16.57446 610 ft 0 kts 62°
2026-05-04 07:55 48.12010 16.57448 610 ft 1 kts 62°
2026-05-04 07:56 48.12012 16.57508 610 ft 11 kts 96°
2026-05-04 07:56 48.11996 16.57590 610 ft 0 kts 105°
2026-05-04 07:57 48.11988 16.57634 619 ft 10 kts 104°
2026-05-04 07:58 48.11966 16.57752 610 ft 13 kts 111°
2026-05-04 07:58 48.11902 16.57849 616 ft 14 kts 160°
2026-05-04 07:58 48.11885 16.57857 619 ft 0 kts 163°
2026-05-04 07:59 48.11831 16.57880 617 ft 35 kts 164°
2026-05-04 07:59 48.11348 16.58085 612 ft 106 kts 164°
2026-05-04 08:00 48.10450 16.58470 629 ft 159 kts 160°
2026-05-04 08:00 48.09349 16.58901 1180 ft 167 kts 166°
2026-05-04 08:00 48.08220 16.59345 2007 ft 170 kts 166°
2026-05-04 08:02 48.00371 16.49814 7073 ft 270 kts 235°
2026-05-04 08:02 47.99284 16.47502 8009 ft 273 kts 233°
2026-05-04 08:02 47.98334 16.45039 8938 ft 279 kts 248°
2026-05-04 08:03 47.97929 16.42221 9873 ft 285 kts 266°
2026-05-04 08:03 47.98018 16.39120 10391 ft 305 kts 271°
2026-05-04 08:03 47.98148 16.35889 10839 ft 323 kts 271°
2026-05-04 08:03 47.98285 16.32511 11584 ft 329 kts 271°
2026-05-04 08:04 47.98424 16.29083 12418 ft 333 kts 271°
2026-05-04 08:04 47.98562 16.25609 13250 ft 336 kts 271°
2026-05-04 08:04 47.98697 16.22117 14050 ft 339 kts 271°
2026-05-04 08:04 47.98829 16.18580 14778 ft 343 kts 271°
2026-05-04 08:05 47.98960 16.15009 15487 ft 346 kts 271°
2026-05-04 08:05 47.99102 16.11409 16179 ft 350 kts 272°
2026-05-04 08:05 47.99327 16.07766 16884 ft 354 kts 274°
2026-05-04 08:05 47.99614 16.04107 17581 ft 357 kts 275°
2026-05-04 08:06 47.99930 16.00401 18294 ft 361 kts 275°
2026-05-04 08:06 48.00250 15.96666 18893 ft 364 kts 275°
2026-05-04 08:06 48.00561 15.92901 19482 ft 367 kts 275°
2026-05-04 08:06 48.00865 15.89095 20105 ft 370 kts 275°
2026-05-04 08:08 48.02911 15.61509 24148 ft 394 kts 275°
2026-05-04 08:08 48.03214 15.57424 24641 ft 397 kts 276°
2026-05-04 08:10 48.04963 15.23895 28256 ft 413 kts 270°
2026-05-04 08:11 48.04981 15.19599 28661 ft 415 kts 270°
2026-05-04 08:11 48.05047 15.10917 29474 ft 420 kts 271°
2026-05-04 08:11 48.05104 15.06545 29846 ft 422 kts 271°
2026-05-04 08:12 48.05167 15.02155 30018 ft 421 kts 271°
2026-05-04 08:12 48.05233 14.97875 30049 ft 403 kts 271°
2026-05-04 08:12 48.05294 14.93744 30043 ft 392 kts 271°
2026-05-04 08:12 48.05350 14.89691 30052 ft 388 kts 271°
2026-05-04 08:13 48.05453 14.81643 30049 ft 386 kts 271°
2026-05-04 08:13 48.05525 14.73668 30039 ft 386 kts 271°
2026-05-04 08:14 48.05575 14.65646 30052 ft 386 kts 271°
2026-05-04 08:16 48.05758 14.33638 30046 ft 384 kts 269°
2026-05-04 08:16 48.04708 14.25837 30042 ft 386 kts 249°
2026-05-04 08:17 48.02361 14.18622 30042 ft 386 kts 245°
2026-05-04 08:17 47.99977 14.11436 30046 ft 386 kts 245°
2026-05-04 08:19 47.90429 13.82784 30041 ft 385 kts 245°
2026-05-04 08:20 47.88031 13.75650 30057 ft 384 kts 245°
2026-05-04 08:20 47.85639 13.68533 30046 ft 384 kts 245°
2026-05-04 08:21 47.83242 13.61440 30050 ft 384 kts 245°
2026-05-04 08:21 47.80820 13.54260 30058 ft 390 kts 245°
2026-05-04 08:22 47.79620 13.50719 29926 ft 381 kts 245°
2026-05-04 08:22 47.78428 13.47224 29638 ft 376 kts 244°
2026-05-04 08:24 47.70444 13.23875 27178 ft 349 kts 244°
2026-05-04 08:24 47.69348 13.20680 26774 ft 346 kts 244°
2026-05-04 08:24 47.68260 13.17509 26355 ft 343 kts 244°
2026-05-04 08:24 47.67179 13.14364 25964 ft 341 kts 244°
2026-05-04 08:25 47.66104 13.11237 25540 ft 339 kts 243°
2026-05-04 08:25 47.65032 13.08129 25125 ft 337 kts 243°
2026-05-04 08:25 47.63967 13.05047 24691 ft 336 kts 243°
2026-05-04 08:25 47.62898 13.01955 24256 ft 335 kts 243°
2026-05-04 08:26 47.61834 12.98882 23827 ft 335 kts 243°
2026-05-04 08:27 47.54507 12.77817 20846 ft 322 kts 242°
2026-05-04 08:28 47.53477 12.74876 20447 ft 321 kts 242°
2026-05-04 08:28 47.52449 12.71948 20045 ft 321 kts 242°
2026-05-04 08:28 47.51449 12.69096 19657 ft 320 kts 242°
2026-05-04 08:28 47.50416 12.66146 19259 ft 320 kts 242°
2026-05-04 08:29 47.49739 12.64215 18996 ft 320 kts 242°
2026-05-04 08:29 47.48716 12.61300 18606 ft 320 kts 242°
2026-05-04 08:29 47.47688 12.58374 18181 ft 320 kts 241°
2026-05-04 08:31 47.40905 12.39148 15935 ft 266 kts 241°
2026-05-04 08:33 47.40648 12.20440 13254 ft 264 kts 275°
2026-05-04 08:33 47.40897 12.17781 12835 ft 259 kts 275°
2026-05-04 08:35 47.42405 12.01700 10719 ft 223 kts 275°
2026-05-04 08:35 47.42608 11.99477 10429 ft 214 kts 276°
2026-05-04 08:35 47.42771 11.97348 10231 ft 205 kts 270°
2026-05-04 08:35 47.42697 11.95257 10156 ft 203 kts 259°
2026-05-04 08:37 47.39007 11.85352 9659 ft 178 kts 233°
2026-05-04 08:37 47.38303 11.83857 9585 ft 177 kts 233°
2026-05-04 08:37 47.37654 11.82345 9494 ft 176 kts 240°
2026-05-04 08:38 47.37221 11.80909 9292 ft 180 kts 246°
2026-05-04 08:38 47.36748 11.79193 8977 ft 181 kts 246°
2026-05-04 08:38 47.36274 11.77478 8696 ft 181 kts 245°
2026-05-04 08:40 47.32937 11.65462 6728 ft 191 kts 247°
2026-05-04 08:40 47.32432 11.63646 6443 ft 192 kts 244°
2026-05-04 08:40 47.31926 11.61827 6129 ft 192 kts 246°
2026-05-04 08:41 47.31433 11.60051 5847 ft 179 kts 246°
2026-05-04 08:41 47.30976 11.58414 5571 ft 168 kts 245°
2026-05-04 08:41 47.30545 11.56871 5305 ft 158 kts 245°
2026-05-04 08:41 47.30137 11.55415 5050 ft 150 kts 248°
2026-05-04 08:42 47.29741 11.54004 4836 ft 148 kts 248°
2026-05-04 08:42 47.29349 11.52603 4618 ft 148 kts 248°
2026-05-04 08:42 47.28957 11.51210 4400 ft 146 kts 248°
2026-05-04 08:42 47.28571 11.49826 4187 ft 146 kts 247°
2026-05-04 08:43 47.28186 11.48449 3966 ft 145 kts 245°
2026-05-04 08:43 47.27803 11.47080 3740 ft 145 kts 246°
2026-05-04 08:43 47.27418 11.45710 3504 ft 145 kts 246°
2026-05-04 08:43 47.27086 11.44328 3260 ft 143 kts 258°
2026-05-04 08:44 47.26934 11.42881 3053 ft 143 kts 259°
2026-05-04 08:44 47.26778 11.41437 2818 ft 142 kts 259°
2026-05-04 08:46 47.25936 11.33712 1906 ft 19 kts 222°
2026-05-04 08:46 47.25849 11.33799 1906 ft 16 kts 124°
2026-05-04 08:46 47.25804 11.33894 1910 ft 10 kts 126°
2026-05-04 08:46 47.25775 11.33979 1905 ft 9 kts 107°
2026-05-04 08:47 47.25771 11.34059 1909 ft 7 kts 85°
2026-05-04 08:47 47.25778 11.34133 1907 ft 9 kts 81°
2026-05-04 08:47 47.25792 11.34257 1914 ft 15 kts 80°
2026-05-04 08:47 47.25809 11.34418 1901 ft 15 kts 81°
2026-05-04 08:48 47.25825 11.34564 1907 ft 14 kts 80°
2026-05-04 08:48 47.25839 11.34695 1907 ft 12 kts 81°
2026-05-04 08:48 47.25852 11.34811 1902 ft 11 kts 80°
2026-05-04 08:48 47.25862 11.34903 1914 ft 8 kts 81°
2026-05-04 08:49 47.25866 11.34937 1901 ft 0 kts 81°
2026-05-04 08:50 47.25829 11.35109 1906 ft 2 kts 171°
2026-05-04 08:50 47.25828 11.35109 1907 ft 0 kts 171°